Time,TemperatureF,DewpointF,PressureIn,WindDirection,WindDirectionDegrees,WindSpeedMPH,WindSpeedGustMPH,Humidity,HourlyPrecipIn,Conditions,Clouds,dailyrainin,SolarRadiationWatts/m^2,SoftwareType,DateUTC
2013-03-02 00:21:00,27.0,13.0,-100.00,WNW,303,13.0,23.0,54,0.00,,,0.00,0.000000,,2013-03-02 07:21:00,
2013-03-02 00:32:00,27.0,13.0,-100.00,WNW,303,13.0,23.0,54,0.00,,,0.00,0.000000,,2013-03-02 07:32:00,
2013-03-02 00:42:00,27.0,13.0,-100.00,WNW,303,13.0,23.0,54,0.00,,,0.00,0.000000,,2013-03-02 07:42:00,
2013-03-02 00:51:00,27.0,13.0,-100.00,WNW,303,13.0,23.0,54,0.00,,,0.00,0.000000,,2013-03-02 07:51:00,
2013-03-02 01:22:00,27.0,12.0,-100.00,WNW,295,11.0,23.0,53,0.00,,,0.00,0.000000,,2013-03-02 08:22:00,
2013-03-02 01:32:00,27.0,12.0,-100.00,WNW,295,11.0,23.0,53,0.00,,,0.00,0.000000,,2013-03-02 08:32:00,
2013-03-02 01:42:00,27.0,12.0,-100.00,WNW,295,11.0,23.0,53,0.00,,,0.00,0.000000,,2013-03-02 08:42:00,
2013-03-02 01:52:00,27.0,12.0,-100.00,WNW,295,11.0,23.0,53,0.00,,,0.00,0.000000,,2013-03-02 08:52:00,
2013-03-02 02:21:00,27.0,13.0,-100.00,WNW,289,14.0,25.0,54,0.00,,,0.00,0.000000,,2013-03-02 09:21:00,
2013-03-02 02:32:00,27.0,13.0,-100.00,WNW,289,14.0,25.0,54,0.00,,,0.00,0.000000,,2013-03-02 09:32:00,
2013-03-02 02:42:00,27.0,13.0,-100.00,WNW,289,14.0,25.0,54,0.00,,,0.00,0.000000,,2013-03-02 09:42:00,
2013-03-02 02:51:00,27.0,13.0,-100.00,WNW,289,14.0,25.0,54,0.00,,,0.00,0.000000,,2013-03-02 09:51:00,
2013-03-02 03:22:00,26.0,13.0,-100.00,WNW,284,13.0,23.0,57,0.00,,,0.00,0.000000,,2013-03-02 10:22:00,
2013-03-02 03:32:00,26.0,13.0,-100.00,WNW,284,13.0,23.0,57,0.00,,,0.00,0.000000,,2013-03-02 10:32:00,
2013-03-02 03:42:00,26.0,13.0,-100.00,WNW,284,13.0,23.0,57,0.00,,,0.00,0.000000,,2013-03-02 10:42:00,
2013-03-02 03:52:00,26.0,13.0,-100.00,WNW,284,13.0,23.0,57,0.00,,,0.00,0.000000,,2013-03-02 10:52:00,
2013-03-02 04:21:00,26.0,12.0,-100.00,WNW,284,13.0,23.0,56,0.00,,,0.00,0.000000,,2013-03-02 11:21:00,
2013-03-02 04:32:00,26.0,12.0,-100.00,WNW,284,13.0,23.0,56,0.00,,,0.00,0.000000,,2013-03-02 11:32:00,
2013-03-02 04:42:00,26.0,12.0,-100.00,WNW,284,13.0,23.0,56,0.00,,,0.00,0.000000,,2013-03-02 11:42:00,
2013-03-02 04:52:00,26.0,12.0,-100.00,WNW,284,13.0,23.0,56,0.00,,,0.00,0.000000,,2013-03-02 11:52:00,
2013-03-02 05:21:00,27.0,12.0,-100.00,WNW,298,10.0,19.0,53,0.00,,,0.00,0.000000,,2013-03-02 12:21:00,
2013-03-02 05:33:00,27.0,12.0,-100.00,WNW,298,10.0,19.0,53,0.00,,,0.00,0.000000,,2013-03-02 12:33:00,
2013-03-02 05:43:00,27.0,12.0,-100.00,WNW,298,10.0,19.0,53,0.00,,,0.00,0.000000,,2013-03-02 12:43:00,
2013-03-02 05:53:00,27.0,12.0,-100.00,WNW,298,10.0,19.0,53,0.00,,,0.00,0.000000,,2013-03-02 12:53:00,
2013-03-02 06:22:00,24.0,10.0,-100.00,WSW,244,3.0,13.0,55,0.00,,,0.00,0.000000,,2013-03-02 13:22:00,
2013-03-02 06:32:00,24.0,10.0,-100.00,WSW,244,3.0,13.0,55,0.00,,,0.00,0.000000,,2013-03-02 13:32:00,
2013-03-02 06:42:00,24.0,10.0,-100.00,WSW,244,3.0,13.0,55,0.00,,,0.00,0.000000,,2013-03-02 13:42:00,
2013-03-02 06:52:00,24.0,10.0,-100.00,WSW,244,3.0,13.0,55,0.00,,,0.00,0.000000,,2013-03-02 13:52:00,
2013-03-02 07:21:00,26.0,11.0,-100.00,WNW,289,8.0,11.0,52,0.00,,,0.00,6.000000,,2013-03-02 14:21:00,
2013-03-02 07:32:00,26.0,11.0,-100.00,WNW,289,8.0,11.0,52,0.00,,,0.00,6.000000,,2013-03-02 14:32:00,
2013-03-02 07:42:00,26.0,11.0,-100.00,WNW,289,8.0,11.0,52,0.00,,,0.00,6.000000,,2013-03-02 14:42:00,
2013-03-02 07:52:00,26.0,11.0,-100.00,WNW,289,8.0,11.0,52,0.00,,,0.00,6.000000,,2013-03-02 14:52:00,
2013-03-02 08:21:00,33.0,13.0,-100.00,North,357,2.0,9.0,44,0.00,,,0.00,72.000000,,2013-03-02 15:21:00,
2013-03-02 08:32:00,33.0,13.0,-100.00,North,357,2.0,9.0,44,0.00,,,0.00,72.000000,,2013-03-02 15:32:00,
2013-03-02 08:42:00,33.0,13.0,-100.00,North,357,2.0,9.0,44,0.00,,,0.00,72.000000,,2013-03-02 15:42:00,
2013-03-02 08:52:00,33.0,13.0,-100.00,North,357,2.0,9.0,44,0.00,,,0.00,72.000000,,2013-03-02 15:52:00,
2013-03-02 09:21:00,34.0,14.0,-100.00,SE,129,4.0,6.0,44,0.00,,,0.00,347.000000,,2013-03-02 16:21:00,
2013-03-02 09:32:00,34.0,14.0,-100.00,SE,129,4.0,6.0,44,0.00,,,0.00,347.000000,,2013-03-02 16:32:00,
2013-03-02 09:42:00,34.0,14.0,-100.00,SE,129,4.0,6.0,44,0.00,,,0.00,347.000000,,2013-03-02 16:42:00,
2013-03-02 09:51:00,34.0,14.0,-100.00,SE,129,4.0,6.0,44,0.00,,,0.00,347.000000,,2013-03-02 16:51:00,
2013-03-02 10:11:00,41.0,15.0,-100.00,SE,137,3.0,7.0,35,0.00,,,0.00,502.000000,,2013-03-02 17:11:00,
2013-03-02 10:21:00,41.0,15.0,-100.00,SE,137,3.0,7.0,35,0.00,,,0.00,502.000000,,2013-03-02 17:21:00,
2013-03-02 10:32:00,41.0,15.0,-100.00,SE,137,3.0,7.0,35,0.00,,,0.00,502.000000,,2013-03-02 17:32:00,
2013-03-02 10:42:00,41.0,15.0,-100.00,SE,137,3.0,7.0,35,0.00,,,0.00,502.000000,,2013-03-02 17:42:00,
2013-03-02 10:52:00,41.0,15.0,-100.00,SE,137,3.0,7.0,35,0.00,,,0.00,502.000000,,2013-03-02 17:52:00,
2013-03-02 11:22:00,43.0,17.0,-100.00,SE,143,4.0,7.0,35,0.00,,,0.00,682.000000,,2013-03-02 18:22:00,
2013-03-02 11:32:00,43.0,17.0,-100.00,SE,143,4.0,7.0,35,0.00,,,0.00,682.000000,,2013-03-02 18:32:00,
2013-03-02 11:42:00,43.0,17.0,-100.00,SE,143,4.0,7.0,35,0.00,,,0.00,682.000000,,2013-03-02 18:42:00,
2013-03-02 11:52:00,43.0,17.0,-100.00,SE,143,4.0,7.0,35,0.00,,,0.00,682.000000,,2013-03-02 18:52:00,
2013-03-02 12:22:00,47.0,17.0,-100.00,East,90,5.0,9.0,30,0.00,,,0.00,760.000000,,2013-03-02 19:22:00,
2013-03-02 12:32:00,47.0,17.0,-100.00,East,90,5.0,9.0,30,0.00,,,0.00,760.000000,,2013-03-02 19:32:00,
2013-03-02 12:42:00,47.0,17.0,-100.00,East,90,5.0,9.0,30,0.00,,,0.00,760.000000,,2013-03-02 19:42:00,
2013-03-02 12:52:00,47.0,17.0,-100.00,East,90,5.0,9.0,30,0.00,,,0.00,760.000000,,2013-03-02 19:52:00,
2013-03-02 13:22:00,49.0,20.0,-100.00,East,87,4.0,12.0,31,0.00,,,0.00,790.000000,,2013-03-02 20:22:00,
2013-03-02 13:32:00,49.0,20.0,-100.00,East,87,4.0,12.0,31,0.00,,,0.00,790.000000,,2013-03-02 20:32:00,
2013-03-02 13:42:00,49.0,20.0,-100.00,East,87,4.0,12.0,31,0.00,,,0.00,790.000000,,2013-03-02 20:42:00,
2013-03-02 13:52:00,49.0,20.0,-100.00,East,87,4.0,12.0,31,0.00,,,0.00,790.000000,,2013-03-02 20:52:00,
2013-03-02 14:22:00,49.0,20.0,-100.00,East,93,5.0,10.0,32,0.00,,,0.00,739.000000,,2013-03-02 21:22:00,
2013-03-02 14:32:00,49.0,20.0,-100.00,East,93,5.0,10.0,32,0.00,,,0.00,739.000000,,2013-03-02 21:32:00,
2013-03-02 14:42:00,49.0,20.0,-100.00,East,93,5.0,10.0,32,0.00,,,0.00,739.000000,,2013-03-02 21:42:00,
2013-03-02 14:52:00,49.0,20.0,-100.00,East,93,5.0,10.0,32,0.00,,,0.00,739.000000,,2013-03-02 21:52:00,
2013-03-02 15:22:00,48.0,16.0,-100.00,NE,45,5.0,15.0,28,0.00,,,0.00,576.000000,,2013-03-02 22:22:00,
2013-03-02 15:32:00,48.0,16.0,-100.00,NE,45,5.0,15.0,28,0.00,,,0.00,576.000000,,2013-03-02 22:32:00,
2013-03-02 15:42:00,48.0,16.0,-100.00,NE,45,5.0,15.0,28,0.00,,,0.00,576.000000,,2013-03-02 22:42:00,
2013-03-02 15:51:00,48.0,16.0,-100.00,NE,45,5.0,15.0,28,0.00,,,0.00,576.000000,,2013-03-02 22:51:00,
2013-03-02 16:11:00,45.0,12.0,-100.00,WNW,293,11.0,21.0,26,0.00,,,0.00,445.000000,,2013-03-02 23:11:00,
2013-03-02 16:21:00,45.0,12.0,-100.00,WNW,293,11.0,21.0,26,0.00,,,0.00,445.000000,,2013-03-02 23:21:00,
2013-03-02 16:32:00,45.0,12.0,-100.00,WNW,293,11.0,21.0,26,0.00,,,0.00,445.000000,,2013-03-02 23:32:00,
2013-03-02 16:42:00,45.0,12.0,-100.00,WNW,293,11.0,21.0,26,0.00,,,0.00,445.000000,,2013-03-02 23:42:00,
2013-03-02 16:52:00,45.0,12.0,-100.00,WNW,293,11.0,21.0,26,0.00,,,0.00,445.000000,,2013-03-02 23:52:00,
2013-03-02 17:22:00,43.0,18.0,-100.00,East,95,2.0,16.0,36,0.00,,,0.00,254.000000,,2013-03-03 00:22:00,
2013-03-02 17:32:00,43.0,18.0,-100.00,East,95,2.0,16.0,36,0.00,,,0.00,254.000000,,2013-03-03 00:32:00,
2013-03-02 17:42:00,43.0,18.0,-100.00,East,95,2.0,16.0,36,0.00,,,0.00,254.000000,,2013-03-03 00:42:00,
2013-03-02 17:52:00,43.0,18.0,-100.00,East,95,2.0,16.0,36,0.00,,,0.00,254.000000,,2013-03-03 00:52:00,
2013-03-02 18:21:00,39.0,11.0,-100.00,NW,307,10.0,17.0,31,0.00,,,0.00,93.000000,,2013-03-03 01:21:00,
2013-03-02 18:32:00,39.0,11.0,-100.00,NW,307,10.0,17.0,31,0.00,,,0.00,93.000000,,2013-03-03 01:32:00,
2013-03-02 18:42:00,39.0,11.0,-100.00,NW,307,10.0,17.0,31,0.00,,,0.00,93.000000,,2013-03-03 01:42:00,
2013-03-02 18:52:00,39.0,11.0,-100.00,NW,307,10.0,17.0,31,0.00,,,0.00,93.000000,,2013-03-03 01:52:00,
2013-03-02 19:21:00,35.0,11.0,-100.00,North,11,3.0,15.0,37,0.00,,,0.00,1.000000,,2013-03-03 02:21:00,
2013-03-02 19:32:00,35.0,11.0,-100.00,North,11,3.0,15.0,37,0.00,,,0.00,1.000000,,2013-03-03 02:32:00,
2013-03-02 19:42:00,35.0,11.0,-100.00,North,11,3.0,15.0,37,0.00,,,0.00,1.000000,,2013-03-03 02:42:00,
2013-03-02 19:52:00,35.0,11.0,-100.00,North,11,3.0,15.0,37,0.00,,,0.00,1.000000,,2013-03-03 02:52:00,
2013-03-02 20:21:00,33.0,10.0,-100.00,North,354,3.0,12.0,37,0.00,,,0.00,0.000000,,2013-03-03 03:21:00,
2013-03-02 20:32:00,33.0,10.0,-100.00,North,354,3.0,12.0,37,0.00,,,0.00,0.000000,,2013-03-03 03:32:00,
2013-03-02 20:42:00,33.0,10.0,-100.00,North,354,3.0,12.0,37,0.00,,,0.00,0.000000,,2013-03-03 03:42:00,
2013-03-02 20:51:00,33.0,10.0,-100.00,North,354,3.0,12.0,37,0.00,,,0.00,0.000000,,2013-03-03 03:51:00,
2013-03-02 21:21:00,34.0,7.0,-100.00,West,278,5.0,16.0,32,0.00,,,0.00,0.000000,,2013-03-03 04:21:00,
2013-03-02 21:32:00,34.0,7.0,-100.00,West,278,5.0,16.0,32,0.00,,,0.00,0.000000,,2013-03-03 04:32:00,
2013-03-02 21:42:00,34.0,7.0,-100.00,West,278,5.0,16.0,32,0.00,,,0.00,0.000000,,2013-03-03 04:42:00,
2013-03-02 21:51:00,34.0,7.0,-100.00,West,278,5.0,16.0,32,0.00,,,0.00,0.000000,,2013-03-03 04:51:00,
2013-03-02 22:22:00,35.0,8.0,-100.00,WNW,296,12.0,20.0,32,0.00,,,0.00,0.000000,,2013-03-03 05:22:00,
2013-03-02 22:32:00,35.0,8.0,-100.00,WNW,296,12.0,20.0,32,0.00,,,0.00,0.000000,,2013-03-03 05:32:00,
2013-03-02 22:42:00,35.0,8.0,-100.00,WNW,296,12.0,20.0,32,0.00,,,0.00,0.000000,,2013-03-03 05:42:00,
2013-03-02 22:52:00,35.0,8.0,-100.00,WNW,296,12.0,20.0,32,0.00,,,0.00,0.000000,,2013-03-03 05:52:00,
2013-03-02 23:21:00,35.0,8.0,-100.00,WNW,285,9.0,17.0,32,0.00,,,0.00,0.000000,,2013-03-03 06:21:00,
2013-03-02 23:32:00,35.0,8.0,-100.00,WNW,285,9.0,17.0,32,0.00,,,0.00,0.000000,,2013-03-03 06:32:00,
2013-03-02 23:42:00,35.0,8.0,-100.00,WNW,285,9.0,17.0,32,0.00,,,0.00,0.000000,,2013-03-03 06:42:00,
2013-03-02 23:52:00,35.0,8.0,-100.00,WNW,285,9.0,17.0,32,0.00,,,0.00,0.000000,,2013-03-03 06:52:00,